EW4769 Weather Reports


Display with metric or nautical units.
time (UTC)temp
F
wind
direction
speed
MPH
gust
MPH
rain 1hr
in
rain 24hr
in
rain mn
in
humidity
%
barometer
mb
20260506181951 64 205 0.0 2.0 0.00 0.00 0.00 76 1019.3
20260506181452 64 205 0.0 1.0 0.00 0.00 0.00 77 1019.3
20260506180951 64 205 0.0 1.0 0.00 0.00 0.00 77 1019.3
20260506180451 63 205 0.0 2.0 0.00 0.00 0.00 78 1019.2
20260506175951 63 205 0.0 4.0 0.00 0.00 0.00 79 1019.2
20260506175452 63 281 0.0 4.0 0.00 0.00 0.00 79 1019.2
20260506174952 62 277 0.0 1.0 0.00 0.00 0.00 79 1019.2
20260506174451 62 259 0.0 0.0 0.00 0.00 0.00 81 1019.2
20260506173951 61 227 0.0 0.0 0.00 0.00 0.00 80 1019.3
20260506173451 61 256 0.0 2.0 0.00 0.00 0.00 79 1019.3
20260506172951 61 268 0.0 4.0 0.00 0.00 0.00 81 1019.2
20260506172455 60 265 0.0 3.0 0.00 0.00 0.00 80 1019.3
20260506172451 61 270 1.0 4.0 0.00 0.00 0.00 82 1019.3
20260506171451 61 265 0.0 4.0 0.00 0.00 0.00 81 1019.3
20260506170951 61 246 0.0 4.0 0.00 0.00 0.00 80 1019.3
20260506170451 61 207 0.0 2.0 0.00 0.00 0.00 82 1019.3
20260506165951 61 254 0.0 0.0 0.00 0.00 0.00 81 1019.3
20260506165455 60 254 0.0 0.0 0.00 0.00 0.00 82 1019.2
20260506165451 61 270 0.0 0.0 0.00 0.00 0.00 81 1019.2
20260506164450 60 256 0.0 0.0 0.00 0.00 0.00 82 1019.2
20260506163951 60 275 0.0 0.0 0.00 0.00 0.00 82 1019.3
20260506163451 60 277 0.0 0.0 0.00 0.00 0.00 82 1019.3
20260506162956 60 278 0.0 0.0 0.00 0.00 0.00 82 1019.3
20260506162451 60 263 0.0 0.0 0.00 0.00 0.00 82 1019.4
20260506161951 60 254 0.0 0.0 0.00 0.00 0.00 81 1019.3
20260506161451 60 240 0.0 0.0 0.00 0.00 0.00 82 1019.4
20260506160951 59 233 0.0 0.0 0.00 0.00 0.00 83 1019.4
20260506160455 59 271 0.0 4.0 0.00 0.00 0.00 83 1019.5
20260506160451 59 221 0.0 0.0 0.00 0.00 0.00 82 1019.4
20260506155949 59 233 0.0 4.0 0.00 0.00 0.00 83 1019.5
20260506154954 59 279 0.0 1.0 0.00 0.00 0.00 85 1019.5
20260506154950 59 209 0.0 1.0 0.00 0.00 0.00 83 1019.5
20260506154553 59 63 0.0 2.0 0.00 0.00 0.00 83 1019.5
20260506153949 59 53 0.0 2.0 0.00 0.00 0.00 83 1019.5
20260506152949 58 66 0.0 1.0 0.00 0.00 0.00 83 1019.6
20260506152447 58 70 1.0 5.0 0.00 0.00 0.00 84 1019.5
20260506151947 58 78 1.0 5.0 0.00 0.00 0.00 84 1019.5
20260506151444 58 94 1.0 5.0 0.00 0.00 0.00 84 1019.5
20260506150945 57 63 2.0 5.0 0.00 0.00 0.00 85 1019.5
20260506150445 57 74 2.0 5.0 0.00 0.00 0.00 86 1019.7
20260506145944 57 82 1.0 6.0 0.00 0.00 0.00 87 1019.7
20260506145445 56 71 0.0 6.0 0.00 0.00 0.00 88 1019.7
20260506144948 56 78 1.0 6.0 0.00 0.00 0.00 88 1019.7
20260506144443 56 61 1.0 6.0 0.00 0.00 0.00 89 1019.7
20260506143946 55 68 1.0 4.0 0.00 0.00 0.00 91 1019.7
20260506143942 55 68 1.0 4.0 0.00 0.00 0.00 90 1019.7
20260506142943 55 84 0.0 4.0 0.00 0.00 0.00 92 1019.7
20260506142443 54 17 0.0 1.0 0.00 0.00 0.00 94 1019.7
20260506141943 53 17 0.0 1.0 0.00 0.00 0.00 94 1019.7
20260506141443 53 15 0.0 0.0 0.00 0.00 0.00 95 1019.6
20260506140947 52 340 0.0 0.0 0.00 0.00 0.00 95 1019.4
20260506140943 53 340 0.0 0.0 0.00 0.00 0.00 95 1019.5
20260506135941 52 340 0.0 0.0 0.00 0.00 0.00 96 1019.3
20260506135440 52 340 0.0 0.0 0.00 0.00 0.00 96 1019.2
20260506134944 52 42 0.0 0.0 0.00 0.00 0.00 95 1019.1
20260506134940 51 42 0.0 0.0 0.00 0.00 0.00 95 1019.1
20260506133941 51 82 0.0 0.0 0.00 0.00 0.00 95 1018.9
20260506133445 51 82 0.0 0.0 0.00 0.00 0.00 96 1018.8
20260506133441 51 82 0.0 0.0 0.00 0.00 0.00 96 1018.9
20260506132441 51 82 0.0 0.0 0.00 0.00 0.00 96 1018.8
20260506131940 51 82 0.0 0.0 0.00 0.00 0.00 95 1019.1
20260506131440 51 82 0.0 0.0 0.00 0.00 0.00 96 1018.9
20260506130939 52 82 0.0 0.0 0.00 0.00 0.00 96 1018.8
20260506130443 52 82 0.0 0.0 0.00 0.00 0.00 95 1018.7
20260506130438 52 82 0.0 0.0 0.00 0.00 0.00 95 1018.7
20260506125439 52 82 0.0 0.0 0.00 0.00 0.00 96 1018.7
20260506124938 52 82 0.0 0.0 0.00 0.00 0.00 96 1018.7
20260506124438 52 82 0.0 0.0 0.00 0.00 0.00 96 1018.7
20260506123939 52 82 0.0 0.0 0.00 0.00 0.00 96 1018.6
20260506123438 52 82 0.0 0.0 0.00 0.00 0.00 96 1018.5
20260506122938 52 82 0.0 0.0 0.00 0.00 0.00 96 1018.6
20260506122439 52 82 0.0 0.0 0.00 0.00 0.00 96 1018.6
20260506121938 52 82 0.0 0.0 0.00 0.00 0.00 96 1018.6
20260506121436 52 82 0.0 0.0 0.00 0.00 0.00 97 1018.5
20260506120940 52 82 0.0 0.0 0.00 0.00 0.00 97 1018.5
20260506120936 52 82 0.0 0.0 0.00 0.00 0.00 97 1018.5
20260506115936 52 82 0.0 0.0 0.00 0.00 0.00 97 1018.4
20260506115436 52 82 0.0 0.0 0.00 0.00 0.00 97 1018.4
20260506114935 52 82 0.0 0.0 0.00 0.00 0.00 97 1018.3
20260506114435 52 82 0.0 0.0 0.00 0.00 0.00 97 1018.3
20260506113934 52 82 0.0 0.0 0.00 0.00 0.00 97 1018.4
20260506113434 52 82 0.0 0.0 0.00 0.00 0.00 97 1018.4
20260506112934 52 82 0.0 0.0 0.00 0.00 0.00 97 1018.3
20260506112433 52 82 0.0 0.0 0.00 0.00 0.00 97 1018.3
20260506111933 52 82 0.0 0.0 0.00 0.00 0.00 97 1018.4
20260506111432 52 82 0.0 0.0 0.00 0.00 0.00 97 1018.4
20260506110932 52 82 0.0 0.0 0.00 0.00 0.00 97 1018.4
20260506110432 52 82 0.0 0.0 0.00 0.00 0.00 97 1018.3
20260506105930 52 82 0.0 0.0 0.00 0.00 0.00 97 1018.2
20260506105430 52 82 0.0 0.0 0.00 0.00 0.00 97 1018.2
20260506104931 52 82 0.0 0.0 0.00 0.00 0.00 97 1018.2
20260506104431 52 82 0.0 0.0 0.00 0.00 0.00 96 1018.2
20260506103935 52 82 0.0 0.0 0.00 0.00 0.00 96 1018.2
20260506103930 52 82 0.0 0.0 0.00 0.00 0.00 96 1018.1
20260506103535 52 82 0.0 0.0 0.00 0.00 0.00 96 1018.2
20260506102430 52 82 0.0 0.0 0.00 0.00 0.00 96 1018.2
20260506101930 52 82 0.0 0.0 0.00 0.00 0.00 96 1018.2
20260506101430 52 82 0.0 0.0 0.00 0.00 0.00 96 1018.3
20260506100935 52 82 0.0 0.0 0.00 0.00 0.00 96 1018.3
20260506100431 52 82 0.0 0.0 0.00 0.00 0.00 96 1018.3
20260506095934 52 82 0.0 0.0 0.00 0.00 0.00 96 1018.2
20260506095929 52 82 0.0 0.0 0.00 0.00 0.00 96 1018.2
20260506094930 52 82 0.0 0.0 0.00 0.00 0.00 96 1018.2
20260506094430 52 82 0.0 0.0 0.00 0.00 0.00 96 1018.2
20260506093930 51 82 0.0 0.0 0.00 0.00 0.00 97 1018.2
20260506093430 51 82 0.0 0.0 0.00 0.00 0.00 97 1018.3
20260506092930 51 82 0.0 0.0 0.00 0.00 0.00 97 1018.3
20260506092430 51 82 0.0 0.0 0.00 0.00 0.00 97 1018.4
20260506091930 51 82 0.0 0.0 0.00 0.00 0.00 97 1018.3
20260506091430 51 82 0.0 0.0 0.00 0.00 0.00 96 1018.3
20260506090930 51 82 0.0 0.0 0.00 0.00 0.00 96 1018.3
20260506090430 51 82 0.0 0.0 0.00 0.00 0.00 96 1018.2
20260506085930 51 82 0.0 0.0 0.00 0.00 0.00 96 1018.1
20260506085430 51 82 0.0 0.0 0.00 0.00 0.00 96 1018.1
20260506084930 51 82 0.0 0.0 0.00 0.00 0.00 95 1018.0
20260506084435 51 82 0.0 0.0 0.00 0.00 0.00 95 1018.1
20260506084430 51 82 0.0 0.0 0.00 0.00 0.00 95 1018.1
20260506083430 51 82 0.0 0.0 0.00 0.00 0.00 95 1018.1
20260506082930 51 82 0.0 0.0 0.00 0.00 0.00 95 1018.1
20260506082430 51 82 0.0 0.0 0.00 0.00 0.00 95 1018.1
20260506081930 51 82 0.0 0.0 0.00 0.00 0.00 94 1018.1
20260506081430 51 82 0.0 0.0 0.00 0.00 0.00 94 1018.1
20260506080930 51 82 0.0 0.0 0.00 0.00 0.00 94 1018.1
20260506080430 51 82 0.0 0.0 0.00 0.00 0.00 93 1018.1
20260506073430 53 82 0.0 0.0 0.00 0.00 0.00 91 1017.9
20260506072928 53 82 0.0 0.0 0.00 0.00 0.00 91 1017.8
20260506072427 53 82 0.0 0.0 0.00 0.00 0.00 91 1017.8
20260506071931 53 82 0.0 0.0 0.00 0.00 0.00 91 1017.7
20260506071925 53 82 0.0 0.0 0.00 0.00 0.00 91 1017.8
20260506071426 53 82 0.0 0.0 0.00 0.00 0.00 91 1017.8
20260506070924 53 82 0.0 0.0 0.00 0.00 0.00 91 1017.9
20260506062422 54 82 0.0 0.0 0.00 0.00 0.00 90 1017.5
20260506061922 54 82 0.0 0.0 0.00 0.00 0.00 90 1017.5
20260506061422 54 82 0.0 0.0 0.00 0.00 0.00 90 1017.6
20260506060923 54 82 0.0 0.0 0.00 0.00 0.00 90 1017.5
20260506060423 54 82 0.0 0.0 0.00 0.00 0.00 90 1017.5
20260506051416 54 82 0.0 0.0 0.00 0.00 0.00 88 1017.2
20260506050916 54 82 0.0 0.0 0.00 0.00 0.00 88 1017.2
20260506050416 54 82 0.0 0.0 0.00 0.00 0.00 89 1017.2
20260506044916 54 82 0.0 0.0 0.00 0.00 0.00 89 1017.1
20260506043917 54 82 0.0 0.0 0.00 0.00 0.00 88 1016.9
20260506043416 54 82 0.0 0.0 0.00 0.00 0.00 89 1016.9
20260506042916 54 82 0.0 0.0 0.00 0.00 0.00 89 1016.9
20260506042420 54 82 0.0 0.0 0.00 0.00 0.00 89 1016.9
20260506042416 54 82 0.0 0.0 0.00 0.00 0.00 89 1016.8
20260506041414 54 82 0.0 0.0 0.00 0.00 0.00 88 1016.8
20260506040914 54 82 0.0 0.0 0.00 0.00 0.00 88 1016.8
20260506040414 55 82 0.0 1.0 0.00 0.00 0.00 89 1016.7
20260506035914 55 82 0.0 1.0 0.00 0.00 0.00 88 1016.6
20260506035414 55 82 0.0 1.0 0.00 0.00 0.00 88 1016.6
20260506034914 55 82 0.0 4.0 0.00 0.00 0.00 88 1016.5
20260506034415 55 82 0.0 4.0 0.00 0.00 0.00 88 1016.5
20260506033914 55 205 0.0 0.0 0.00 0.00 0.00 89 1016.5
20260506033415 55 205 0.0 2.0 0.00 0.00 0.00 88 1016.4
20260506032919 55 205 0.0 2.0 0.00 0.00 0.00 88 1016.3
20260506032914 55 205 0.0 2.0 0.00 0.00 0.00 88 1016.3
20260506031914 55 205 0.0 3.0 0.00 0.00 0.00 88 1016.1
20260506031414 55 205 0.0 3.0 0.00 0.00 0.00 88 1016.2
20260506030914 55 242 0.0 0.0 0.00 0.00 0.00 89 1016.1
20260506030414 55 242 0.0 0.0 0.00 0.00 0.00 89 1016.0
20260506025914 55 242 0.0 0.0 0.00 0.00 0.00 89 1016.0
20260506025414 55 242 0.0 0.0 0.00 0.00 0.00 89 1015.9
20260506024915 56 242 0.0 0.0 0.00 0.00 0.00 88 1015.9
20260506024420 56 242 0.0 0.0 0.00 0.00 0.00 88 1015.6
20260506024414 56 242 0.0 0.0 0.00 0.00 0.00 88 1015.6
20260506023914 56 242 0.0 0.0 0.00 0.00 0.00 89 1015.7
20260506023414 56 242 0.0 0.0 0.00 0.00 0.00 88 1015.7
20260506022914 56 242 0.0 0.0 0.00 0.00 0.00 88 1015.6
20260506021914 56 242 0.0 0.0 0.00 0.00 0.00 88 1015.6
20260506021414 56 123 0.0 0.0 0.00 0.00 0.00 88 1015.6
20260506020915 56 123 0.0 0.0 0.00 0.00 0.00 88 1015.6
20260506020418 56 122 0.0 0.0 0.00 0.00 0.00 87 1015.7
20260506020414 56 122 0.0 0.0 0.00 0.00 0.00 88 1015.7
20260506015414 56 122 0.0 0.0 0.00 0.00 0.00 87 1015.7
20260506014914 56 122 0.0 0.0 0.00 0.00 0.00 88 1015.7
20260506014414 56 122 0.0 0.0 0.00 0.00 0.00 89 1015.6
20260506013914 56 122 0.0 0.0 0.00 0.00 0.00 89 1015.6
20260506013413 56 122 0.0 0.0 0.00 0.00 0.00 89 1015.6
20260506012913 56 122 0.0 0.0 0.00 0.00 0.00 88 1015.5
20260506012518 57 227 0.0 0.0 0.00 0.00 0.00 88 1015.5
20260506012417 57 227 0.0 0.0 0.00 0.00 0.00 88 1015.5
20260506012412 57 122 0.0 0.0 0.00 0.00 0.00 88 1015.5
20260506010912 57 227 0.0 0.0 0.00 0.00 0.00 88 1015.4
20260506010412 57 227 0.0 0.0 0.00 0.00 0.00 88 1015.4
20260506005912 57 227 0.0 0.0 0.00 0.00 0.00 88 1015.4
20260506005414 57 227 0.0 0.0 0.00 0.00 0.00 87 1015.3
20260506005410 57 227 0.0 0.0 0.00 0.00 0.00 88 1015.4
20260506004410 58 227 0.0 0.0 0.00 0.00 0.00 87 1015.3
20260506003913 58 227 0.0 0.0 0.00 0.00 0.00 86 1015.3
20260506003909 58 227 0.0 0.0 0.00 0.00 0.00 86 1015.3
20260506003515 58 227 0.0 0.0 0.00 0.00 0.00 85 1015.2
20260506002415 59 227 0.0 0.0 0.00 0.00 0.00 83 1015.1
20260506002410 58 227 0.0 0.0 0.00 0.00 0.00 85 1015.2
20260506001910 59 227 0.0 0.0 0.00 0.00 0.00 83 1015.2
20260506000909 59 227 0.0 0.0 0.00 0.00 0.00 82 1015.0
20260506000410 59 234 0.0 0.0 0.00 0.00 0.00 81 1015.0
20260505235911 59 221 0.0 0.0 0.00 0.00 0.00 79 1015.0
20260505235906 59 234 0.0 0.0 0.00 0.00 0.00 79 1015.0
20260505234910 59 98 0.0 0.0 0.00 0.00 0.00 80 1014.9
20260505234906 59 230 0.0 0.0 0.00 0.00 0.00 79 1014.9
20260505233910 59 232 0.0 2.0 0.00 0.00 0.00 79 1014.9
20260505233906 59 82 0.0 0.0 0.00 0.00 0.00 80 1015.0
20260505233510 59 227 1.0 5.0 0.00 0.00 0.00 79 1014.9
20260505232408 59 317 1.0 4.0 0.00 0.00 0.00 83 1015.0
20260505232404 59 227 1.0 5.0 0.00 0.00 0.00 80 1014.9
20260505231403 58 268 1.0 3.0 0.00 0.00 0.00 82 1015.0
20260505230903 58 267 1.0 6.0 0.00 0.00 0.00 82 1015.1
20260505230404 58 267 1.0 6.0 0.00 0.00 0.00 83 1015.1
20260505225904 58 253 1.0 4.0 0.00 0.00 0.00 82 1015.1
20260505225403 58 200 0.0 2.0 0.00 0.00 0.00 82 1015.1
20260505224908 58 112 0.0 1.0 0.00 0.00 0.00 84 1015.2
20260505224904 58 114 0.0 0.0 0.00 0.00 0.00 83 1015.1
20260505223908 58 112 0.0 2.0 0.00 0.00 0.00 83 1015.3
20260505223904 58 112 0.0 2.0 0.00 0.00 0.00 83 1015.3
20260505222903 58 112 0.0 1.0 0.00 0.00 0.00 85 1015.3
20260505222403 58 112 0.0 1.0 0.00 0.00 0.00 85 1015.3
20260505221904 58 112 0.0 1.0 0.00 0.00 0.00 85 1015.4
20260505221402 57 112 0.0 1.0 0.00 0.00 0.00 85 1015.4
20260505220902 57 112 0.0 2.0 0.00 0.00 0.00 84 1015.4
20260505220401 57 112 0.0 2.0 0.00 0.00 0.00 84 1015.5
20260505215902 57 112 0.0 3.0 0.00 0.00 0.00 84 1015.5
20260505215402 57 112 1.0 3.0 0.00 0.00 0.00 84 1015.5
20260505214901 57 113 0.0 3.0 0.00 0.00 0.00 84 1015.5
20260505214401 58 115 0.0 3.0 0.00 0.00 0.00 84 1015.5
20260505213902 58 116 0.0 3.0 0.00 0.00 0.00 84 1015.5
20260505213408 58 198 0.0 2.0 0.00 0.00 0.00 83 1015.6
20260505213403 58 121 0.0 1.0 0.00 0.00 0.00 84 1015.6
20260505213006 58 198 1.0 4.0 0.00 0.00 0.00 84 1015.6
20260505212504 58 198 2.0 4.0 0.00 0.00 0.00 83 1015.7
20260505211400 58 236 1.0 3.0 0.00 0.00 0.00 83 1015.6
20260505210859 58 223 0.0 3.0 0.00 0.00 0.00 84 1015.6
20260505210359 57 109 0.0 2.0 0.00 0.00 0.00 83 1015.6
20260505205859 57 242 0.0 3.0 0.00 0.00 0.00 84 1015.5
20260505205403 57 71 1.0 6.0 0.00 0.00 0.00 84 1015.6
20260505205359 57 242 0.0 3.0 0.00 0.00 0.00 83 1015.5
20260505204359 57 255 1.0 6.0 0.00 0.00 0.00 84 1015.6
20260505203900 57 175 0.0 0.0 0.00 0.00 0.00 84 1015.7
20260505203358 57 243 0.0 0.0 0.00 0.00 0.00 84 1015.6
20260505202902 57 301 1.0 4.0 0.00 0.00 0.00 84 1015.7
20260505202858 57 280 1.0 4.0 0.00 0.00 0.00 84 1015.6
20260505201858 57 252 0.0 3.0 0.00 0.00 0.00 83 1015.6
20260505201357 57 253 0.0 0.0 0.00 0.00 0.00 82 1015.7
20260505200904 57 242 0.0 0.0 0.00 0.00 0.00 83 1015.9
20260505200900 57 244 0.0 0.0 0.00 0.00 0.00 83 1015.7
20260505195902 57 200 0.0 3.0 0.00 0.00 0.00 82 1015.9
20260505195857 57 240 0.0 3.0 0.00 0.00 0.00 82 1015.9
20260505194857 57 244 0.0 0.0 0.00 0.00 0.00 83 1015.9
20260505194358 57 243 0.0 0.0 0.00 0.00 0.00 82 1015.9
20260505193858 56 78 1.0 2.0 0.00 0.00 0.00 84 1016.0
20260505193403 56 238 2.0 4.0 0.00 0.00 0.00 82 1016.0
20260505193359 56 238 2.0 4.0 0.00 0.00 0.00 83 1016.0
20260505192359 56 240 1.0 4.0 0.00 0.00 0.00 82 1016.0
20260505191902 56 248 2.0 4.0 0.00 0.00 0.00 82 1016.0
20260505191858 56 248 1.0 3.0 0.00 0.00 0.00 83 1016.0
20260505190856 56 266 2.0 4.0 0.00 0.00 0.00 82 1016.0
20260505190405 56 221 2.0 7.0 0.00 0.00 0.00 82 1015.9
20260505190355 56 306 2.0 5.0 0.00 0.00 0.00 83 1015.9
20260505185958 56 238 2.0 7.0 0.00 0.00 0.00 82 1015.9
20260505184853 56 221 2.0 7.0 0.00 0.00 0.00 81 1015.7
20260505184354 56 269 1.0 6.0 0.00 0.00 0.00 81 1015.7
20260505183853 56 262 2.0 7.0 0.00 0.00 0.00 81 1015.7
20260505183354 56 217 1.0 7.0 0.00 0.00 0.00 80 1015.7
20260505182853 56 187 0.0 4.0 0.00 0.00 0.00 81 1015.9
20260505182353 56 179 0.0 4.0 0.00 0.00 0.00 79 1015.9